星链-6052 (STARLINK-6052 )

导读

STARLINK-6052是美国SpaceX公司星链星座的一员,于2023年5月31日发射升空。星链旨在构建全球低轨宽带互联网星座,为全球偏远地区、海洋与航空等场景提供高速互联网接入服务。该卫星属于星链大规模扩张阶段产物,运行在近550公里低地球轨道,依托星座的相控阵天线、星间激光链路技术,可提供低延迟高带宽网络服务,是当前全球最大卫星星座的组成部分。

Basic Information
目录编号:
56793
目录名称:
STARLINK-6052
国际标识:
2023-078AC
轨道中心:
EARTH
卫星名称:
星链-6052
卫星全名:
星链-6052 (STARLINK-6052 )
卫星状态:
在轨 (已飞行1200 天)
发射日期:
2023-05-31 UTC
国别 :
美国 (US)
星等 :
--
This satellite is enrolled in the Space Conjunction Data Service (SCDS) and the current flight risk assessment level is: No High Risk
Orbit Information
数据来源 国际轨道数据 AOE轨道数据
星历时间 2026-09-12T10:33:03+0800
14小时前
查看轨道信息
2026-09-10T18:00:00+0800
2天前
查看轨道信息
半长轴 6950.195km 6950.196km
偏心率 0.0003459 0.0002809
轨道倾角 69.999° 69.995°
近地点辐角 263.053° 266.326°
升交点赤经 234.430° 238.689°
平近点角 97.023° 342.546°
近地点 569.653km 570.106km
远地点 574.463km 574.012km
周期 96.107分钟 96.107分钟
每日圈数 14.983296 14.983293
Detailed Information
固有亮度:
5
最大亮度:
2.5
卫星平台:
Starlink v1.5
覆盖范围:
全球
运营商:
太空探索技术公司
运营商所在国:
美国
制造商(研发单位):
太空探索技术公司
制造商所在国:
美国
使用方式:
暂无
Satellite Introduction
星链(Starlink)计划是由太空探索技术公司(SpaceX)提出的一个巨型低轨卫星互联网星座项目,计划在2019年至2024年间在太空搭建由约1.2万颗卫星组成的“星链”网络,其中1584颗将部署在地球上空550千米处的近地轨道,并从2020年开始工作。该卫星仍在工作。
2D Orbit Map
3D Orbit Map
Orbit Altitude Analysis Chart
Orbit Inclination Analysis Chart
Orbit Comprehensive Analysis Chart
View Comprehensive Chart
Conjunction Data List
Event ID Objects TCA Miss Dist (km) Collision Risk Probability Collision Risk Index (CRI) Action
CDM_260912-180905-520805-679323
2026-09-12T
18:09:42+0000
0.959 km
远距离
2.753431E-5 中风险 0.64
CDM_260915-004203-054605-679321
2026-09-15T
00:42:40+0000
1.741 km
极远距离
3.157032E-6 低风险 0.45
CDM_260915-025802-971305-679322
PSLV R/B (29713)
2026-09-15T
02:58:42+0000
2.144 km
极远距离
1.749123E-6 低风险 0.4
CDM_260915-043402-971305-679322
PSLV R/B (29713)
2026-09-15T
04:34:52+0000
2.416 km
极远距离
1.373371E-6 低风险 0.38
CDM_260915-012202-971305-679321
PSLV R/B (29713)
2026-09-15T
01:22:33+0000
2.638 km
极远距离
1.179916E-6 低风险 0.36
Miss Distance Evolution Trend with All Objects
Collision Probability Evolution Trend with All Objects